| time (UTC) | temp F | wind direction | speed MPH | gust MPH | rain 1hr in | rain 24hr in | rain mn in | humidity % | barometer mb |
| 20260901040548 | 59 | 230 | 0.0 | 0.0 | 0.00 | 0.00 | 0.00 | 87 | 1008.9 |
| 20260901040043 | 59 | 230 | 0.0 | 0.0 | 0.00 | 0.00 | 0.00 | 87 | 1008.9 |
| 20260901035541 | 59 | 230 | 0.0 | 0.0 | 0.00 | 0.00 | 0.00 | 86 | 1008.9 |
| 20260901035040 | 60 | 230 | 0.0 | 0.0 | 0.00 | 0.00 | 0.00 | 86 | 1008.9 |
| 20260901034539 | 60 | 231 | 0.0 | 0.0 | 0.00 | 0.00 | 0.00 | 85 | 1008.6 |
| 20260901034034 | 60 | 230 | 0.0 | 0.0 | 0.00 | 0.00 | 0.00 | 84 | 1008.6 |
| 20260901033533 | 60 | 231 | 0.0 | 0.0 | 0.00 | 0.00 | 0.00 | 83 | 1008.6 |
| 20260901033033 | 61 | 231 | 0.0 | 0.0 | 0.00 | 0.00 | 0.00 | 83 | 1008.6 |
| 20260901032532 | 61 | 231 | 0.0 | 0.0 | 0.00 | 0.00 | 0.00 | 83 | 1008.2 |
| 20260901032027 | 62 | 231 | 0.0 | 0.0 | 0.00 | 0.00 | 0.00 | 82 | 1008.6 |
| 20260901031523 | 62 | 231 | 0.0 | 0.0 | 0.00 | 0.00 | 0.00 | 81 | 1008.6 |
| 20260901031018 | 62 | 231 | 0.0 | 0.0 | 0.00 | 0.00 | 0.00 | 82 | 1008.6 |
| 20260901030518 | 63 | 231 | 0.0 | 0.0 | 0.00 | 0.00 | 0.00 | 82 | 1007.9 |
| 20260901030013 | 63 | 231 | 0.0 | 0.0 | 0.00 | 0.00 | 0.00 | 79 | 1008.2 |
| 20260901025507 | 64 | 231 | 0.0 | 0.0 | 0.00 | 0.00 | 0.00 | 78 | 1008.2 |
| 20260901025006 | 64 | 231 | 0.0 | 0.0 | 0.00 | 0.00 | 0.00 | 75 | 1007.9 |
| 20260901024502 | 64 | 230 | 0.0 | 0.0 | 0.00 | 0.00 | 0.00 | 78 | 1008.2 |
| 20260901024000 | 65 | 230 | 0.0 | 0.0 | 0.00 | 0.00 | 0.00 | 79 | 1007.9 |
| 20260901023455 | 65 | 230 | 0.0 | 0.0 | 0.00 | 0.00 | 0.00 | 76 | 1007.9 |
| 20260901022949 | 66 | 230 | 0.0 | 0.0 | 0.00 | 0.00 | 0.00 | 76 | 1007.9 |
| 20260901022445 | 66 | 230 | 0.0 | 0.0 | 0.00 | 0.00 | 0.00 | 75 | 1008.2 |
| 20260901021940 | 67 | 230 | 0.0 | 0.0 | 0.00 | 0.00 | 0.00 | 76 | 1008.2 |
| 20260901021436 | 67 | 230 | 0.0 | 0.0 | 0.00 | 0.00 | 0.00 | 75 | 1008.2 |
| 20260901020931 | 68 | 230 | 0.0 | 0.0 | 0.00 | 0.00 | 0.00 | 74 | 1008.2 |
| 20260901020426 | 68 | 229 | 0.0 | 0.0 | 0.00 | 0.00 | 0.00 | 73 | 1008.2 |
| 20260901015925 | 69 | 229 | 0.0 | 1.0 | 0.00 | 0.00 | 0.00 | 73 | 1008.2 |
| 20260901015422 | 69 | 228 | 0.0 | 0.0 | 0.00 | 0.00 | 0.00 | 72 | 1008.2 |
| 20260901014921 | 70 | 241 | 0.0 | 0.0 | 0.00 | 0.00 | 0.00 | 68 | 1008.2 |
| 20260901014418 | 70 | 226 | 0.0 | 0.0 | 0.00 | 0.00 | 0.00 | 66 | 1008.2 |
| 20260901013913 | 71 | 238 | 0.0 | 0.0 | 0.00 | 0.00 | 0.00 | 62 | 1008.2 |
| 20260901013408 | 72 | 237 | 0.0 | 0.0 | 0.00 | 0.00 | 0.00 | 59 | 1008.2 |
| 20260901012904 | 73 | 235 | 0.0 | 0.0 | 0.00 | 0.00 | 0.00 | 62 | 1008.2 |
| 20260901012358 | 73 | 226 | 0.0 | 0.0 | 0.00 | 0.00 | 0.00 | 57 | 1008.2 |
| 20260901011854 | 74 | 244 | 0.0 | 0.0 | 0.00 | 0.00 | 0.00 | 62 | 1008.2 |
| 20260901011350 | 75 | 199 | 1.0 | 1.0 | 0.00 | 0.00 | 0.00 | 56 | 1008.2 |
| 20260901010848 | 77 | 241 | 0.0 | 1.0 | 0.00 | 0.00 | 0.00 | 56 | 1008.2 |
| 20260901010343 | 77 | 234 | 1.0 | 1.0 | 0.00 | 0.00 | 0.00 | 48 | 1008.2 |
| 20260901005842 | 76 | 239 | 0.0 | 0.0 | 0.00 | 0.00 | 0.00 | 51 | 1008.2 |
| 20260901005337 | 75 | 214 | 3.0 | 5.0 | 0.00 | 0.00 | 0.00 | 52 | 1008.2 |
| 20260901004832 | 76 | 227 | 0.0 | 1.0 | 0.00 | 0.00 | 0.00 | 50 | 1008.2 |
| 20260901004326 | 76 | 254 | 1.0 | 1.0 | 0.00 | 0.00 | 0.00 | 49 | 1008.6 |
| 20260901003826 | 77 | 184 | 2.0 | 2.0 | 0.00 | 0.00 | 0.00 | 51 | 1008.2 |
| 20260901003322 | 78 | 238 | 1.0 | 2.0 | 0.00 | 0.00 | 0.00 | 49 | 1008.2 |
| 20260901002820 | 78 | 211 | 2.0 | 2.0 | 0.00 | 0.00 | 0.00 | 48 | 1008.2 |
| 20260901002315 | 76 | 260 | 1.0 | 1.0 | 0.00 | 0.00 | 0.00 | 47 | 1008.6 |
| 20260901001815 | 76 | 233 | 0.0 | 0.0 | 0.00 | 0.00 | 0.00 | 49 | 1008.2 |
| 20260901001312 | 77 | 227 | 1.0 | 2.0 | 0.00 | 0.00 | 0.00 | 48 | 1008.2 |
| 20260901000805 | 77 | 128 | 1.0 | 2.0 | 0.00 | 0.00 | 0.00 | 47 | 1008.6 |
| 20260901000303 | 77 | 250 | 1.0 | 1.0 | 0.00 | 0.00 | 0.00 | 47 | 1008.2 |
| 20260831235759 | 78 | 251 | 0.0 | 0.0 | 0.00 | 0.00 | 0.00 | 47 | 1008.6 |
| 20260831235255 | 77 | 255 | 1.0 | 1.0 | 0.00 | 0.00 | 0.00 | 48 | 1008.6 |
| 20260831234756 | 78 | 261 | 5.0 | 6.0 | 0.00 | 0.00 | 0.00 | 47 | 1008.6 |
| 20260831234255 | 78 | 268 | 2.0 | 2.0 | 0.00 | 0.00 | 0.00 | 46 | 1008.6 |
| 20260831233751 | 79 | 199 | 4.0 | 5.0 | 0.00 | 0.00 | 0.00 | 46 | 1008.9 |
| 20260831233246 | 79 | 266 | 1.0 | 2.0 | 0.00 | 0.00 | 0.00 | 46 | 1008.9 |
| 20260831232741 | 79 | 230 | 3.0 | 5.0 | 0.00 | 0.00 | 0.00 | 45 | 1008.6 |
| 20260831232237 | 79 | 217 | 5.0 | 7.0 | 0.00 | 0.00 | 0.00 | 45 | 1008.6 |
| 20260831231733 | 79 | 254 | 1.0 | 2.0 | 0.00 | 0.00 | 0.00 | 45 | 1008.6 |
| 20260831231230 | 79 | 231 | 1.0 | 1.0 | 0.00 | 0.00 | 0.00 | 45 | 1008.6 |
| 20260831230729 | 80 | 270 | 2.0 | 2.0 | 0.00 | 0.00 | 0.00 | 45 | 1008.9 |
| 20260831230224 | 80 | 209 | 1.0 | 1.0 | 0.00 | 0.00 | 0.00 | 45 | 1009.2 |
| 20260831225723 | 80 | 229 | 3.0 | 5.0 | 0.00 | 0.00 | 0.00 | 45 | 1008.9 |
| 20260831224844 | 79 | 252 | 1.0 | 2.0 | 0.00 | 0.00 | 0.00 | 47 | 1009.2 |
| 20260831224338 | 79 | 252 | 1.0 | 2.0 | 0.00 | 0.00 | 0.00 | 47 | 1009.2 |
| 20260831223833 | 79 | 205 | 2.0 | 2.0 | 0.00 | 0.00 | 0.00 | 48 | 1009.6 |
| 20260831223329 | 77 | 272 | 1.0 | 1.0 | 0.00 | 0.00 | 0.00 | 50 | 1009.2 |
| 20260831222826 | 77 | 254 | 1.0 | 1.0 | 0.00 | 0.00 | 0.00 | 50 | 1009.2 |
| 20260831222321 | 77 | 235 | 0.0 | 0.0 | 0.00 | 0.00 | 0.00 | 50 | 1009.6 |
| 20260831221821 | 77 | 252 | 2.0 | 2.0 | 0.00 | 0.00 | 0.00 | 50 | 1009.6 |
| 20260831221317 | 78 | 137 | 3.0 | 3.0 | 0.00 | 0.00 | 0.00 | 48 | 1009.6 |
| 20260831220812 | 78 | 139 | 1.0 | 1.0 | 0.00 | 0.00 | 0.00 | 49 | 1009.6 |
| 20260831220307 | 78 | 251 | 2.0 | 2.0 | 0.00 | 0.00 | 0.00 | 49 | 1009.6 |
| 20260831215802 | 77 | 296 | 3.0 | 3.0 | 0.00 | 0.00 | 0.00 | 51 | 1009.6 |
| 20260831215258 | 76 | 105 | 3.0 | 6.0 | 0.00 | 0.00 | 0.00 | 51 | 1009.6 |
| 20260831214754 | 75 | 278 | 1.0 | 1.0 | 0.00 | 0.00 | 0.00 | 52 | 1009.6 |
| 20260831214252 | 76 | 290 | 2.0 | 2.0 | 0.00 | 0.00 | 0.00 | 51 | 1009.9 |
| 20260831213747 | 76 | 108 | 5.0 | 7.0 | 0.00 | 0.00 | 0.00 | 51 | 1009.9 |
| 20260831213244 | 77 | 196 | 1.0 | 1.0 | 0.00 | 0.00 | 0.00 | 51 | 1010.3 |
| 20260831212743 | 76 | 26 | 2.0 | 2.0 | 0.00 | 0.00 | 0.00 | 51 | 1010.3 |
| 20260831212241 | 77 | 120 | 3.0 | 3.0 | 0.00 | 0.00 | 0.00 | 51 | 1010.3 |
| 20260831211739 | 76 | 222 | 1.0 | 2.0 | 0.00 | 0.00 | 0.00 | 53 | 1010.3 |
| 20260831211235 | 77 | 184 | 3.0 | 3.0 | 0.00 | 0.00 | 0.00 | 52 | 1010.3 |
| 20260831210734 | 75 | 175 | 1.0 | 2.0 | 0.00 | 0.00 | 0.00 | 54 | 1010.3 |
| 20260831210225 | 75 | 124 | 4.0 | 6.0 | 0.00 | 0.00 | 0.00 | 53 | 1010.3 |
| 20260831205724 | 76 | 243 | 2.0 | 2.0 | 0.00 | 0.00 | 0.00 | 52 | 1010.3 |
| 20260831205220 | 76 | 91 | 1.0 | 2.0 | 0.00 | 0.00 | 0.00 | 51 | 1010.6 |
| 20260831204715 | 76 | 206 | 3.0 | 6.0 | 0.00 | 0.00 | 0.00 | 51 | 1010.6 |
| 20260831204214 | 77 | 101 | 1.0 | 1.0 | 0.00 | 0.00 | 0.00 | 51 | 1010.6 |
| 20260831203713 | 76 | 224 | 1.0 | 1.0 | 0.00 | 0.00 | 0.00 | 51 | 1010.6 |
| 20260831203208 | 77 | 264 | 2.0 | 2.0 | 0.00 | 0.00 | 0.00 | 50 | 1010.9 |
| 20260831202706 | 75 | 280 | 2.0 | 2.0 | 0.00 | 0.00 | 0.00 | 52 | 1010.6 |
| 20260831202201 | 76 | 195 | 0.0 | 1.0 | 0.00 | 0.00 | 0.00 | 54 | 1010.9 |
| 20260831201655 | 76 | 248 | 3.0 | 3.0 | 0.00 | 0.00 | 0.00 | 54 | 1010.9 |
| 20260831201154 | 75 | 104 | 1.0 | 2.0 | 0.00 | 0.00 | 0.00 | 53 | 1011.3 |
| 20260831200651 | 76 | 221 | 4.0 | 5.0 | 0.00 | 0.00 | 0.00 | 52 | 1010.9 |
| 20260831200151 | 74 | 287 | 1.0 | 1.0 | 0.00 | 0.00 | 0.00 | 56 | 1010.9 |
| 20260831195646 | 75 | 184 | 5.0 | 7.0 | 0.00 | 0.00 | 0.00 | 54 | 1010.9 |
| 20260831195141 | 74 | 254 | 1.0 | 2.0 | 0.00 | 0.00 | 0.00 | 56 | 1011.3 |
| 20260831194636 | 73 | 255 | 2.0 | 3.0 | 0.00 | 0.00 | 0.00 | 58 | 1011.3 |
| 20260831194131 | 72 | 188 | 1.0 | 1.0 | 0.00 | 0.00 | 0.00 | 59 | 1011.3 |
| 20260831193626 | 72 | 73 | 3.0 | 5.0 | 0.00 | 0.00 | 0.00 | 59 | 1011.3 |
| 20260831193121 | 75 | 128 | 3.0 | 5.0 | 0.00 | 0.00 | 0.00 | 57 | 1011.7 |
| 20260831192616 | 75 | 139 | 0.0 | 1.0 | 0.00 | 0.00 | 0.00 | 54 | 1011.3 |
| 20260831192112 | 73 | 184 | 1.0 | 1.0 | 0.00 | 0.00 | 0.00 | 58 | 1011.7 |
| 20260831191608 | 72 | 177 | 2.0 | 2.0 | 0.00 | 0.00 | 0.00 | 59 | 1011.3 |
| 20260831191103 | 72 | 175 | 2.0 | 2.0 | 0.00 | 0.00 | 0.00 | 60 | 1012.0 |
| 20260831190558 | 74 | 109 | 2.0 | 3.0 | 0.00 | 0.00 | 0.00 | 59 | 1011.7 |
| 20260831190056 | 72 | 208 | 0.0 | 1.0 | 0.00 | 0.00 | 0.00 | 61 | 1012.0 |
| 20260831185553 | 72 | 183 | 1.0 | 2.0 | 0.00 | 0.00 | 0.00 | 62 | 1012.0 |
| 20260831185049 | 72 | 180 | 3.0 | 3.0 | 0.00 | 0.00 | 0.00 | 61 | 1011.7 |
| 20260831184548 | 72 | 141 | 1.0 | 2.0 | 0.00 | 0.00 | 0.00 | 61 | 1012.0 |
| 20260831184044 | 72 | 235 | 2.0 | 3.0 | 0.00 | 0.00 | 0.00 | 60 | 1012.0 |
| 20260831183543 | 72 | 1 | 3.0 | 3.0 | 0.00 | 0.00 | 0.00 | 61 | 1012.0 |
| 20260831183042 | 70 | 262 | 1.0 | 1.0 | 0.00 | 0.00 | 0.00 | 64 | 1012.0 |
| 20260831182537 | 71 | 136 | 1.0 | 1.0 | 0.00 | 0.00 | 0.00 | 62 | 1012.0 |
| 20260831182033 | 69 | 162 | 1.0 | 2.0 | 0.00 | 0.00 | 0.00 | 66 | 1012.0 |
| 20260831181532 | 70 | 263 | 3.0 | 3.0 | 0.00 | 0.00 | 0.00 | 64 | 1012.4 |
| 20260831181032 | 69 | 187 | 0.0 | 1.0 | 0.00 | 0.00 | 0.00 | 68 | 1012.4 |
| 20260831180527 | 70 | 254 | 0.0 | 0.0 | 0.00 | 0.00 | 0.00 | 67 | 1012.4 |
| 20260831180022 | 68 | 153 | 2.0 | 2.0 | 0.00 | 0.00 | 0.00 | 70 | 1012.4 |
| 20260831175517 | 67 | 231 | 1.0 | 1.0 | 0.00 | 0.00 | 0.00 | 71 | 1012.4 |
| 20260831175015 | 66 | 123 | 2.0 | 3.0 | 0.00 | 0.00 | 0.00 | 73 | 1012.7 |
| 20260831174514 | 65 | 115 | 2.0 | 3.0 | 0.00 | 0.00 | 0.00 | 75 | 1012.4 |
| 20260831174009 | 65 | 247 | 1.0 | 1.0 | 0.00 | 0.00 | 0.00 | 75 | 1012.4 |
| 20260831173507 | 66 | 198 | 0.0 | 1.0 | 0.00 | 0.00 | 0.00 | 73 | 1012.7 |
| 20260831173003 | 64 | 226 | 1.0 | 1.0 | 0.00 | 0.00 | 0.00 | 76 | 1012.7 |
| 20260831172459 | 64 | 162 | 1.0 | 2.0 | 0.00 | 0.00 | 0.00 | 77 | 1012.7 |
| 20260831171953 | 63 | 185 | 2.0 | 2.0 | 0.00 | 0.00 | 0.00 | 78 | 1012.7 |
| 20260831171449 | 63 | 317 | 1.0 | 2.0 | 0.00 | 0.00 | 0.00 | 80 | 1012.7 |
| 20260831170946 | 63 | 236 | 1.0 | 2.0 | 0.00 | 0.00 | 0.00 | 80 | 1012.7 |
| 20260831170442 | 63 | 282 | 0.0 | 1.0 | 0.00 | 0.00 | 0.00 | 81 | 1013.1 |
| 20260831165939 | 62 | 191 | 1.0 | 1.0 | 0.00 | 0.00 | 0.00 | 83 | 1012.7 |
| 20260831165434 | 62 | 222 | 3.0 | 3.0 | 0.00 | 0.00 | 0.00 | 83 | 1012.7 |
| 20260831164931 | 62 | 227 | 1.0 | 1.0 | 0.00 | 0.00 | 0.00 | 83 | 1013.1 |
| 20260831164426 | 62 | 132 | 3.0 | 3.0 | 0.00 | 0.00 | 0.00 | 83 | 1013.1 |
| 20260831163921 | 62 | 228 | 1.0 | 2.0 | 0.00 | 0.00 | 0.00 | 82 | 1013.1 |
| 20260831163417 | 62 | 209 | 0.0 | 0.0 | 0.00 | 0.00 | 0.00 | 83 | 1012.7 |
| 20260831162915 | 62 | 178 | 2.0 | 3.0 | 0.00 | 0.00 | 0.00 | 83 | 1013.1 |
| 20260831162411 | 61 | 268 | 0.0 | 0.0 | 0.00 | 0.00 | 0.00 | 85 | 1012.7 |
| 20260831161909 | 59 | 257 | 0.0 | 1.0 | 0.00 | 0.00 | 0.00 | 86 | 1013.1 |
| 20260831161406 | 58 | 223 | 0.0 | 0.0 | 0.00 | 0.00 | 0.00 | 93 | 1012.7 |
| 20260831160901 | 56 | 297 | 0.0 | 0.0 | 0.00 | 0.00 | 0.00 | 94 | 1013.1 |
| 20260831160356 | 56 | 239 | 0.0 | 0.0 | 0.00 | 0.00 | 0.00 | 98 | 1013.1 |
| 20260831155851 | 55 | 238 | 0.0 | 0.0 | 0.00 | 0.00 | 0.00 | 99 | 1013.1 |
| 20260831155350 | 54 | 241 | 0.0 | 0.0 | 0.00 | 0.00 | 0.00 | 99 | 1013.1 |
| 20260831154846 | 53 | 241 | 0.0 | 0.0 | 0.00 | 0.00 | 0.00 | 99 | 1013.1 |
| 20260831154343 | 53 | 241 | 0.0 | 0.0 | 0.00 | 0.00 | 0.00 | 99 | 1013.4 |
| 20260831153841 | 53 | 241 | 0.0 | 0.0 | 0.00 | 0.00 | 0.00 | 99 | 1013.4 |
| 20260831153337 | 52 | 241 | 0.0 | 0.0 | 0.00 | 0.00 | 0.00 | 99 | 1013.1 |
| 20260831152833 | 52 | 241 | 0.0 | 0.0 | 0.00 | 0.00 | 0.00 | 99 | 1013.4 |
| 20260831152328 | 51 | 241 | 0.0 | 0.0 | 0.00 | 0.00 | 0.00 | 99 | 1013.4 |
| 20260831151823 | 51 | 241 | 0.0 | 0.0 | 0.00 | 0.00 | 0.00 | 99 | 1013.4 |
| 20260831151322 | 50 | 241 | 0.0 | 0.0 | 0.00 | 0.00 | 0.00 | 99 | 1013.7 |
| 20260831150818 | 50 | 241 | 0.0 | 0.0 | 0.00 | 0.00 | 0.00 | 99 | 1013.7 |
| 20260831150313 | 50 | 241 | 0.0 | 0.0 | 0.00 | 0.00 | 0.00 | 99 | 1013.4 |
| 20260831145812 | 50 | 241 | 0.0 | 0.0 | 0.00 | 0.00 | 0.00 | 99 | 1013.4 |
| 20260831145309 | 50 | 241 | 0.0 | 0.0 | 0.00 | 0.00 | 0.00 | 99 | 1013.4 |
| 20260831144804 | 49 | 241 | 0.0 | 0.0 | 0.00 | 0.00 | 0.00 | 99 | 1013.7 |
| 20260831144300 | 49 | 241 | 0.0 | 0.0 | 0.00 | 0.00 | 0.00 | 99 | 1013.4 |
| 20260831143800 | 49 | 241 | 0.0 | 0.0 | 0.00 | 0.00 | 0.00 | 99 | 1013.4 |
| 20260831143255 | 49 | 241 | 0.0 | 0.0 | 0.00 | 0.00 | 0.00 | 99 | 1013.4 |
| 20260831142750 | 49 | 241 | 0.0 | 0.0 | 0.00 | 0.00 | 0.00 | 99 | 1013.4 |
| 20260831142245 | 49 | 241 | 0.0 | 0.0 | 0.00 | 0.00 | 0.00 | 99 | 1013.4 |
| 20260831141740 | 49 | 241 | 0.0 | 0.0 | 0.00 | 0.00 | 0.00 | 99 | 1013.4 |
| 20260831141239 | 49 | 241 | 0.0 | 0.0 | 0.00 | 0.00 | 0.00 | 99 | 1013.4 |
| 20260831140735 | 49 | 241 | 0.0 | 0.0 | 0.00 | 0.00 | 0.00 | 99 | 1013.4 |
| 20260831140229 | 49 | 241 | 0.0 | 0.0 | 0.00 | 0.00 | 0.00 | 99 | 1013.4 |
| 20260831135726 | 48 | 241 | 0.0 | 0.0 | 0.00 | 0.00 | 0.00 | 99 | 1013.1 |
| 20260831135223 | 48 | 241 | 0.0 | 0.0 | 0.00 | 0.00 | 0.00 | 99 | 1013.4 |
| 20260831134718 | 48 | 241 | 0.0 | 0.0 | 0.00 | 0.00 | 0.00 | 99 | 1013.4 |
| 20260831134214 | 48 | 241 | 0.0 | 0.0 | 0.00 | 0.00 | 0.00 | 99 | 1013.7 |
| 20260831133713 | 48 | 241 | 0.0 | 0.0 | 0.00 | 0.00 | 0.00 | 99 | 1013.4 |
| 20260831133207 | 48 | 241 | 0.0 | 0.0 | 0.00 | 0.00 | 0.00 | 99 | 1013.4 |
| 20260831132703 | 48 | 241 | 0.0 | 0.0 | 0.00 | 0.00 | 0.00 | 99 | 1013.4 |
| 20260831132202 | 48 | 241 | 0.0 | 0.0 | 0.00 | 0.00 | 0.00 | 99 | 1013.4 |
| 20260831131657 | 48 | 241 | 0.0 | 0.0 | 0.00 | 0.00 | 0.00 | 99 | 1013.4 |
| 20260831131154 | 48 | 241 | 0.0 | 0.0 | 0.00 | 0.00 | 0.00 | 99 | 1013.7 |
| 20260831130649 | 49 | 241 | 0.0 | 0.0 | 0.00 | 0.00 | 0.00 | 99 | 1013.4 |
| 20260831130144 | 49 | 241 | 0.0 | 0.0 | 0.00 | 0.00 | 0.00 | 99 | 1013.7 |
| 20260831125642 | 49 | 241 | 0.0 | 0.0 | 0.00 | 0.00 | 0.00 | 99 | 1013.7 |
| 20260831125138 | 48 | 241 | 0.0 | 0.0 | 0.00 | 0.00 | 0.00 | 99 | 1013.7 |
| 20260831124634 | 49 | 241 | 0.0 | 0.0 | 0.00 | 0.00 | 0.00 | 99 | 1013.7 |
| 20260831124130 | 49 | 241 | 0.0 | 0.0 | 0.00 | 0.00 | 0.00 | 99 | 1013.7 |
| 20260831123630 | 49 | 241 | 0.0 | 0.0 | 0.00 | 0.00 | 0.00 | 99 | 1013.7 |
| 20260831123129 | 49 | 241 | 0.0 | 0.0 | 0.00 | 0.00 | 0.00 | 99 | 1013.7 |
| 20260831122628 | 49 | 241 | 0.0 | 0.0 | 0.00 | 0.00 | 0.00 | 99 | 1014.1 |
| 20260831122125 | 49 | 241 | 0.0 | 0.0 | 0.00 | 0.00 | 0.00 | 99 | 1013.7 |
| 20260831121623 | 49 | 241 | 0.0 | 0.0 | 0.00 | 0.00 | 0.00 | 99 | 1014.1 |
| 20260831121120 | 49 | 241 | 0.0 | 0.0 | 0.00 | 0.00 | 0.00 | 99 | 1014.1 |
| 20260831120615 | 49 | 241 | 0.0 | 0.0 | 0.00 | 0.00 | 0.00 | 99 | 1014.1 |
| 20260831120110 | 49 | 241 | 0.0 | 0.0 | 0.00 | 0.00 | 0.00 | 99 | 1014.1 |
| 20260831115606 | 49 | 241 | 0.0 | 0.0 | 0.00 | 0.00 | 0.00 | 99 | 1014.1 |
| 20260831115101 | 49 | 241 | 0.0 | 0.0 | 0.00 | 0.00 | 0.00 | 99 | 1014.1 |
| 20260831114600 | 49 | 241 | 0.0 | 0.0 | 0.00 | 0.00 | 0.00 | 99 | 1014.1 |
| 20260831114055 | 49 | 241 | 0.0 | 0.0 | 0.00 | 0.00 | 0.00 | 99 | 1014.1 |
| 20260831113554 | 49 | 241 | 0.0 | 0.0 | 0.00 | 0.00 | 0.00 | 99 | 1014.1 |
| 20260831113050 | 49 | 241 | 0.0 | 0.0 | 0.00 | 0.00 | 0.00 | 99 | 1014.4 |
| 20260831112549 | 49 | 241 | 0.0 | 0.0 | 0.00 | 0.00 | 0.00 | 99 | 1014.4 |
| 20260831112044 | 50 | 241 | 0.0 | 0.0 | 0.00 | 0.00 | 0.00 | 99 | 1014.4 |
| 20260831111541 | 49 | 241 | 0.0 | 0.0 | 0.00 | 0.00 | 0.00 | 99 | 1014.8 |
| 20260831111036 | 50 | 241 | 0.0 | 0.0 | 0.00 | 0.00 | 0.00 | 99 | 1014.8 |
| 20260831110531 | 49 | 241 | 0.0 | 0.0 | 0.00 | 0.00 | 0.00 | 99 | 1014.8 |
| 20260831110026 | 50 | 241 | 0.0 | 0.0 | 0.00 | 0.00 | 0.00 | 99 | 1014.4 |
| 20260831105525 | 50 | 241 | 0.0 | 0.0 | 0.00 | 0.00 | 0.00 | 99 | 1014.8 |
| 20260831105020 | 50 | 241 | 0.0 | 0.0 | 0.00 | 0.00 | 0.00 | 99 | 1014.4 |
| 20260831104517 | 50 | 241 | 0.0 | 0.0 | 0.00 | 0.00 | 0.00 | 99 | 1014.1 |
| 20260831104012 | 50 | 241 | 0.0 | 0.0 | 0.00 | 0.00 | 0.00 | 99 | 1014.4 |
| 20260831103507 | 50 | 241 | 0.0 | 0.0 | 0.00 | 0.00 | 0.00 | 99 | 1014.4 |
| 20260831103003 | 50 | 241 | 0.0 | 0.0 | 0.00 | 0.00 | 0.00 | 99 | 1014.4 |
| 20260831102457 | 50 | 241 | 0.0 | 0.0 | 0.00 | 0.00 | 0.00 | 99 | 1014.4 |
| 20260831101952 | 50 | 241 | 0.0 | 0.0 | 0.00 | 0.00 | 0.00 | 99 | 1014.8 |
| 20260831101447 | 50 | 241 | 0.0 | 0.0 | 0.00 | 0.00 | 0.00 | 99 | 1014.8 |
| 20260831100943 | 50 | 241 | 0.0 | 0.0 | 0.00 | 0.00 | 0.00 | 99 | 1014.8 |
| 20260831100439 | 50 | 241 | 0.0 | 0.0 | 0.00 | 0.00 | 0.00 | 99 | 1014.8 |
| 20260831095934 | 51 | 241 | 0.0 | 0.0 | 0.00 | 0.00 | 0.00 | 99 | 1014.8 |
| 20260831095433 | 50 | 241 | 0.0 | 0.0 | 0.00 | 0.00 | 0.00 | 99 | 1015.1 |
| 20260831094928 | 51 | 241 | 0.0 | 0.0 | 0.00 | 0.00 | 0.00 | 99 | 1014.8 |
| 20260831094424 | 50 | 241 | 0.0 | 0.0 | 0.00 | 0.00 | 0.00 | 98 | 1015.1 |
| 20260831093920 | 51 | 241 | 0.0 | 0.0 | 0.00 | 0.00 | 0.00 | 99 | 1015.1 |
| 20260831093414 | 51 | 241 | 0.0 | 1.0 | 0.00 | 0.00 | 0.00 | 99 | 1015.1 |
| 20260831092911 | 50 | 241 | 0.0 | 0.0 | 0.00 | 0.00 | 0.00 | 99 | 1015.1 |
| 20260831092407 | 51 | 240 | 0.0 | 0.0 | 0.00 | 0.00 | 0.00 | 99 | 1015.1 |
| 20260831091902 | 51 | 241 | 0.0 | 0.0 | 0.00 | 0.00 | 0.00 | 99 | 1015.4 |
| 20260831091357 | 51 | 241 | 0.0 | 0.0 | 0.00 | 0.00 | 0.00 | 99 | 1015.4 |
| 20260831090852 | 51 | 240 | 0.0 | 0.0 | 0.00 | 0.00 | 0.00 | 99 | 1015.4 |
| 20260831090348 | 51 | 240 | 0.0 | 0.0 | 0.00 | 0.00 | 0.00 | 99 | 1015.4 |
| 20260831085844 | 51 | 241 | 0.0 | 0.0 | 0.00 | 0.00 | 0.00 | 99 | 1015.8 |
| 20260831085338 | 51 | 240 | 0.0 | 0.0 | 0.00 | 0.00 | 0.00 | 99 | 1015.4 |
| 20260831084833 | 51 | 240 | 0.0 | 0.0 | 0.00 | 0.00 | 0.00 | 98 | 1015.4 |
| 20260831084329 | 51 | 241 | 0.0 | 0.0 | 0.00 | 0.00 | 0.00 | 99 | 1015.4 |
| 20260831083825 | 51 | 240 | 0.0 | 0.0 | 0.00 | 0.00 | 0.00 | 98 | 1015.8 |
| 20260831083321 | 51 | 240 | 0.0 | 0.0 | 0.00 | 0.00 | 0.00 | 98 | 1015.4 |
| 20260831082819 | 51 | 240 | 0.0 | 0.0 | 0.00 | 0.00 | 0.00 | 98 | 1015.8 |
| 20260831082314 | 51 | 240 | 0.0 | 0.0 | 0.00 | 0.00 | 0.00 | 98 | 1015.4 |
| 20260831081810 | 51 | 240 | 0.0 | 0.0 | 0.00 | 0.00 | 0.00 | 98 | 1015.8 |
| 20260831081305 | 51 | 240 | 0.0 | 0.0 | 0.00 | 0.00 | 0.00 | 98 | 1015.8 |
| 20260831080801 | 51 | 240 | 0.0 | 0.0 | 0.00 | 0.00 | 0.00 | 98 | 1015.8 |
| 20260831080255 | 51 | 240 | 0.0 | 0.0 | 0.00 | 0.00 | 0.00 | 97 | 1015.8 |
| 20260831075751 | 51 | 240 | 0.0 | 0.0 | 0.00 | 0.00 | 0.00 | 97 | 1015.8 |
| 20260831075246 | 51 | 240 | 0.0 | 0.0 | 0.00 | 0.00 | 0.00 | 97 | 1015.8 |
| 20260831074746 | 51 | 240 | 0.0 | 0.0 | 0.00 | 0.00 | 0.00 | 97 | 1015.8 |
| 20260831074240 | 52 | 240 | 0.0 | 0.0 | 0.00 | 0.00 | 0.00 | 96 | 1016.2 |
| 20260831073736 | 52 | 240 | 0.0 | 0.0 | 0.00 | 0.00 | 0.00 | 97 | 1015.8 |
| 20260831073235 | 52 | 240 | 0.0 | 0.0 | 0.00 | 0.00 | 0.00 | 96 | 1015.8 |
| 20260831072730 | 52 | 240 | 0.0 | 0.0 | 0.00 | 0.00 | 0.00 | 96 | 1015.8 |
| 20260831072227 | 52 | 240 | 0.0 | 0.0 | 0.00 | 0.00 | 0.00 | 96 | 1016.2 |
| 20260831071726 | 52 | 240 | 0.0 | 0.0 | 0.00 | 0.00 | 0.00 | 96 | 1016.2 |
| 20260831071221 | 52 | 240 | 0.0 | 0.0 | 0.00 | 0.00 | 0.00 | 95 | 1016.2 |
| 20260831070715 | 52 | 240 | 0.0 | 0.0 | 0.00 | 0.00 | 0.00 | 95 | 1016.2 |
| 20260831070209 | 53 | 240 | 0.0 | 0.0 | 0.00 | 0.00 | 0.00 | 95 | 1016.6 |
| 20260831065708 | 52 | 240 | 0.0 | 0.0 | 0.00 | 0.00 | 0.00 | 94 | 1016.6 |
| 20260831065207 | 53 | 240 | 0.0 | 0.0 | 0.00 | 0.00 | 0.00 | 94 | 1016.6 |
| 20260831064702 | 53 | 240 | 0.0 | 0.0 | 0.00 | 0.00 | 0.00 | 94 | 1016.6 |
| 20260831064157 | 53 | 240 | 0.0 | 0.0 | 0.00 | 0.00 | 0.00 | 93 | 1016.6 |
| 20260831063653 | 53 | 240 | 0.0 | 0.0 | 0.00 | 0.00 | 0.00 | 92 | 1016.6 |
| 20260831063148 | 53 | 240 | 0.0 | 0.0 | 0.00 | 0.00 | 0.00 | 92 | 1016.9 |
| 20260831062643 | 54 | 240 | 0.0 | 0.0 | 0.00 | 0.00 | 0.00 | 92 | 1016.6 |
| 20260831062142 | 54 | 240 | 0.0 | 0.0 | 0.00 | 0.00 | 0.00 | 91 | 1016.9 |
| 20260831061640 | 54 | 240 | 0.0 | 0.0 | 0.00 | 0.00 | 0.00 | 90 | 1016.9 |
| 20260831061136 | 54 | 240 | 0.0 | 0.0 | 0.00 | 0.00 | 0.00 | 91 | 1016.9 |
| 20260831060632 | 55 | 240 | 0.0 | 0.0 | 0.00 | 0.00 | 0.00 | 90 | 1016.9 |
| 20260831060132 | 55 | 240 | 0.0 | 0.0 | 0.00 | 0.00 | 0.00 | 88 | 1017.2 |
| 20260831055631 | 55 | 240 | 0.0 | 0.0 | 0.00 | 0.00 | 0.00 | 88 | 1016.9 |
| 20260831055127 | 56 | 239 | 0.0 | 0.0 | 0.00 | 0.00 | 0.00 | 88 | 1016.9 |
| 20260831054626 | 56 | 240 | 0.0 | 0.0 | 0.00 | 0.00 | 0.00 | 86 | 1017.2 |
| 20260831054121 | 57 | 231 | 0.0 | 0.0 | 0.00 | 0.00 | 0.00 | 85 | 1016.9 |
| 20260831053620 | 58 | 243 | 0.0 | 0.0 | 0.00 | 0.00 | 0.00 | 84 | 1017.2 |
| 20260831053114 | 59 | 162 | 1.0 | 2.0 | 0.00 | 0.00 | 0.00 | 82 | 1016.9 |
| 20260831052613 | 59 | 290 | 2.0 | 2.0 | 0.00 | 0.00 | 0.00 | 82 | 1017.2 |
| 20260831052107 | 58 | 271 | 0.0 | 0.0 | 0.00 | 0.00 | 0.00 | 83 | 1017.2 |
| 20260831051605 | 56 | 255 | 0.0 | 0.0 | 0.00 | 0.00 | 0.00 | 87 | 1017.2 |
| 20260831051104 | 56 | 251 | 0.0 | 0.0 | 0.00 | 0.00 | 0.00 | 87 | 1017.6 |
| 20260831050604 | 57 | 226 | 0.0 | 1.0 | 0.00 | 0.00 | 0.00 | 85 | 1017.6 |
| 20260831045557 | 57 | 266 | 0.0 | 0.0 | 0.00 | 0.00 | 0.00 | 84 | 1017.6 |
| 20260831045052 | 56 | 267 | 1.0 | 1.0 | 0.00 | 0.00 | 0.00 | 85 | 1017.6 |
| 20260831044548 | 56 | 251 | 0.0 | 0.0 | 0.00 | 0.00 | 0.00 | 86 | 1017.6 |
| 20260831044042 | 57 | 251 | 0.0 | 0.0 | 0.00 | 0.00 | 0.00 | 85 | 1017.6 |
| 20260831043537 | 57 | 251 | 0.0 | 0.0 | 0.00 | 0.00 | 0.00 | 85 | 1017.6 |
| 20260831043033 | 57 | 251 | 0.0 | 0.0 | 0.00 | 0.00 | 0.00 | 84 | 1017.9 |
| 20260831042532 | 58 | 251 | 0.0 | 0.0 | 0.00 | 0.00 | 0.00 | 83 | 1017.6 |
| 20260831042032 | 58 | 251 | 0.0 | 0.0 | 0.00 | 0.00 | 0.00 | 81 | 1017.6 |
| 20260831041528 | 58 | 250 | 0.0 | 0.0 | 0.00 | 0.00 | 0.00 | 82 | 1017.9 |
| 20260831041021 | 59 | 250 | 0.0 | 0.0 | 0.00 | 0.00 | 0.00 | 82 | 1017.9 |